Dewpoint
62 62 61 61 61 61 61 60 59 59 58 58 58 58 59 59 59 59 58 58 58 58 58 58 58 57 53 41 33 30 55 51 36 32 27 28 27 26 25 25 26 24 22 22 22 17 11
61 61 61 61 60 60 61 60 60 59 58 58 58 58 58 58 59 59 58 58 57 57 58 58 58 57 47 28 29 30 35 34 35 33 30 30 26 27 26 27 26 26 22 21 22 22 18
61 61 61 60 60 60 60 59 59 59 59 58 58 58 58 58 59 58 58 58 57 57 57 58 58 53 47 32 36 37 38 36 36 36 31 32 30 27 27 26 29 27 24 25 24 22 22
58 60 59 60 60 57 56 57 57 57 57 57 57 57 57 57 57 57 57 56 56 56 57 57 57 52 44 42 41 43 39 35 32 36 33 31 30 29 28 28 25 23 26 23 24 24 23
57 58 58 57 56 55 54 55 56 56 56 56 56 56 55 54 53 53 53 54 54 55 56 56 52 48 43 46 36 40 37 35 33 35 32 28 29 27 28 26 24 24 20 22 23 23 22
57 57 57 57 56 56 55 54 56 55 55 54 54 53 53 52 52 52 52 52 51 54 53 52 50 41 38 30 31 31 30 31 32 30 31 32 28 24 25 25 22 22 20 21 18 17 14
57 56 56 56 56 55 55 56 55 54 54 54 53 53 52 51 52 52 52 49 39 42 49 41 43 38 38 35 33 28 29 30 32 30 26 27 25 24 24 26 26 24 24 19 20 24 23
57 57 56 56 55 55 55 56 55 54 54 53 53 52 51 51 52 53 52 44 42 41 37 42 44 43 43 42 40 39 32 24 25 25 27 23 22 25 26 26 26 27 25 25 25 25 24
55 56 56 56 55 55 54 55 55 54 53 53 51 50 50 51 52 50 47 44 44 44 37 37 35 33 32 34 40 38 30 24 20 19 20 22 22 23 22 21 22 26 26 25 23 23 23
54 54 54 55 55 55 55 55 55 54 53 53 51 50 50 51 44 47 44 45 46 44 23 21 24 24 22 26 23 32 29 27 26 20 23 22 22 17 18 22 24 22 24 23 22 22 19
53 53 53 54 53 53 53 53 53 54 53 52 51 49 51 51 47 46 45 47 45 37 11 15 24 33 29 21 28 28 31 26 21 24 24 23 23 24 24 23 24 21 26 24 24 21 21
51 53 53 53 53 52 52 52 52 51 52 52 51 50 51 49 47 46 46 47 42 29 18 23 30 28 27 28 27 30 31 32 28 24 23 22 23 20 21 24 25 25 23 23 23 21 18
50 51 51 52 52 52 52 52 51 51 51 52 51 50 49 47 43 47 47 40 26 24 22 17 27 29 32 30 31 28 28 27 23 20 21 21 20 21 20 18 22 22 21 19 17 19 16
47 48 49 50 51 52 52 52 51 50 51 50 50 49 48 46 46 47 44 36 22 17 15 13 13 25 29 30 30 29 26 25 25 22 19 17 12 17 20 19 19 20 21 21 17 17 15
44 45 47 48 49 51 52 52 51 50 50 50 49 45 44 45 46 46 37 26 19 22 17 15 15 16 25 27 29 26 25 23 22 23 18 14 13 15 18 21 22 19 17 22 19 18 15
40 44 46 47 48 49 51 51 51 51 50 49 44 40 40 46 46 43 34 25 25 25 14 18 17 21 24 24 17 25 15 15 13 16 17 16 13 16 16 18 17 14 15 13 17 12 11
40 40 43 44 48 47 47 50 51 51 50 48 42 35 39 47 45 39 27 26 23 21 20 21 22 20 21 17 20 19 17 16 13 14 14 15 16 15 13 16 15 14 16 18 17 20 14
40 41 42 44 44 46 45 46 49 51 50 47 42 32 41 47 35 34 30 28 28 21 23 22 22 22 22 22 18 14 19 18 17 20 15 23 19 14 11 16 16 14 14 16 17 14 21
40 40 40 42 43 44 45 45 45 49 49 45 37 35 47 43 29 29 29 28 26 25 24 19 20 19 21 16 15 17 19 25 22 22 22 21 19 18 12 14 19 15 14 15 19 20 16
40 41 41 40 40 43 44 44 44 46 49 44 36 32 37 42 35 30 28 26 28 27 22 24 19 22 21 16 17 18 20 25 28 25 35 28 20 18 14 18 21 17 16 17 17 18 17
39 40 41 42 41 42 44 44 45 45 49 43 37 33 37 32 33 34 33 30 24 26 26 23 20 21 21 19 19 18 18 19 25 33 25 20 16 20 20 19 19 18 16 17 20 20 18
39 41 41 42 42 42 43 44 44 45 48 42 34 34 38 35 33 35 34 32 28 26 25 22 22 22 23 22 20 19 24 25 22 30 25 26 19 21 18 22 23 23 23 23 22 21 21
37 40 41 42 42 41 41 44 44 46 46 40 41 42 39 32 32 31 30 31 30 29 31 32 29 25 26 27 28 29 31 30 30 29 29 28 26 25 22 24 24 20 24 23 23 22 23
37 38 38 40 42 41 42 43 44 45 45 42 42 42 35 30 31 29 29 30 29 30 29 32 34 31 30 34 33 30 29 29 30 29 30 28 26 26 23 22 16 21 27 26 26 27 28
38 38 39 40 42 42 42 43 44 45 45 44 44 41 37 31 32 29 29 29 29 31 29 32 35 34 36 33 27 24 25 25 25 27 28 29 28 23 20 19 17 19 20 21 24 22 29
38 38 39 41 42 42 42 43 44 43 45 45 44 45 40 34 31 31 30 30 28 26 26 28 36 38 37 32 28 22 20 23 22 26 28 24 28 24 25 21 18 22 26 28 30 23 34
39 38 39 41 42 42 42 43 44 43 44 43 43 45 41 35 37 37 32 28 29 28 27 29 29 32 35 26 25 25 23 23 21 20 24 25 25 24 23 22 25 27 27 33 22 22 36
38 39 40 41 42 42 42 43 43 42 43 43 42 45 41 37 38 39 39 33 30 30 28 30 32 32 30 26 28 26 25 26 23 22 24 26 25 26 26 25 21 29 32 28 29 37 37
40 39 39 40 42 42 42 43 42 41 41 44 40 45 45 40 38 39 40 39 38 37 33 35 31 34 34 30 29 29 27 29 28 25 31 28 30 28 28 26 31 36 35 37 40 36 35
Lifted_Index
2 2 2 2 3 3 3 4 4 3 3 3 3 3 3 3 3 3 3 4 4 4 5 6 7 8 7 6 7 7 7 7 6 6 6 7 7 6 6 6 6 6 6 6 7 7 7
2 2 2 2 2 2 3 3 3 3 2 2 2 2 2 2 3 3 3 4 4 5 6 6 7 7 6 6 7 8 7 7 7 6 7 7 7 7 6 6 6 6 6 6 6 6 6
2 2 1 1 1 1 2 2 2 2 2 2 2 2 2 2 3 3 3 4 4 6 7 7 8 7 6 6 8 8 8 7 7 6 6 7 7 6 6 6 6 6 6 5 5 5 6
3 3 2 1 1 1 1 1 2 2 2 2 2 2 3 3 3 3 3 4 5 7 8 8 9 8 6 7 8 8 7 7 7 6 6 7 6 6 5 5 6 6 6 5 5 5 6
4 3 3 2 2 1 1 2 3 3 4 4 3 4 4 4 4 4 5 5 7 8 8 9 9 8 6 7 7 7 7 7 7 6 6 7 7 6 5 5 5 5 5 5 5 5 6
5 4 4 4 3 3 3 4 5 5 6 6 6 6 6 6 6 7 7 7 8 8 7 7 7 7 7 7 7 6 6 6 7 7 7 7 7 6 6 5 5 4 5 5 5 5 5
6 5 5 5 5 6 6 6 7 7 7 7 7 7 7 7 8 8 7 7 7 7 6 5 6 6 6 6 7 6 6 7 7 7 7 7 6 5 6 6 5 5 5 5 4 4 5
6 6 6 6 7 7 7 7 8 8 8 8 8 7 7 8 8 8 7 7 7 7 5 5 5 6 6 6 6 6 6 7 7 7 7 6 6 6 6 6 6 5 5 5 4 4 4
7 7 7 7 7 7 7 7 8 8 9 9 9 8 8 8 8 8 8 7 8 7 5 5 5 6 6 7 7 6 7 7 7 6 6 6 6 6 6 6 6 5 5 5 5 4 4
7 7 7 7 7 7 7 7 7 8 8 9 9 9 9 9 9 8 8 7 7 6 5 4 6 6 7 7 7 7 7 7 7 7 6 7 7 7 6 6 6 5 5 5 5 4 4
8 8 7 7 7 7 7 7 8 8 8 9 9 9 9 9 9 8 7 7 6 5 4 4 6 7 7 7 7 7 7 7 7 7 7 7 7 6 6 6 5 5 5 5 5 4 4
8 8 7 7 7 7 7 7 8 8 8 8 8 9 9 9 9 8 7 6 6 5 4 4 5 6 6 6 6 6 6 6 6 6 6 6 6 6 6 5 5 5 5 4 4 3 3
9 9 8 7 7 7 7 7 7 8 8 8 8 9 9 9 8 7 6 6 5 4 4 5 5 5 5 5 5 5 5 5 6 5 5 5 6 6 5 5 5 4 4 3 2 2 2
10 9 9 7 7 6 6 6 7 7 7 8 8 8 8 8 8 7 6 6 5 5 5 5 5 5 5 4 4 4 5 5 5 5 5 5 5 5 5 4 4 4 4 3 2 2 2
10 10 9 8 7 6 6 6 6 7 7 7 8 8 8 8 7 6 6 6 6 6 6 5 5 5 4 4 3 3 4 4 5 5 5 5 5 5 4 4 3 3 3 3 2 2 2
11 10 10 9 8 7 6 6 6 6 6 7 8 8 8 7 6 5 6 6 7 7 6 5 4 4 3 3 3 3 3 4 4 4 5 5 5 5 4 3 3 3 3 3 2 2 1
10 10 10 9 8 8 7 6 5 5 6 6 7 7 6 6 5 5 6 6 7 6 6 5 4 3 3 2 2 2 2 3 4 4 5 5 5 5 4 3 2 2 2 2 2 2 1
10 10 9 9 8 8 8 7 5 5 5 5 5 5 5 5 5 5 6 6 6 5 4 4 4 4 3 3 2 2 2 3 4 4 4 5 5 4 4 3 2 2 2 2 2 2 2
9 9 9 8 8 7 7 7 5 4 4 4 4 4 3 3 4 5 5 5 4 4 3 3 4 3 3 3 2 2 2 3 4 4 4 4 4 4 3 3 3 2 3 3 2 2 3
8 8 8 7 7 7 6 6 5 4 3 3 3 3 2 2 3 3 4 3 3 3 2 2 3 3 3 2 2 2 2 3 3 4 4 4 4 3 3 3 3 3 3 3 3 3 2
7 7 6 6 6 6 6 6 5 4 3 3 3 2 2 2 2 2 3 2 2 2 2 2 2 3 3 2 2 2 2 3 3 3 3 4 4 3 3 3 3 3 3 3 3 3 2
6 6 6 6 6 6 5 5 5 4 3 2 2 2 2 2 2 2 2 2 2 1 1 1 2 2 2 3 3 2 2 2 3 3 3 3 3 3 2 2 2 3 3 3 3 3 2
6 6 5 5 5 5 5 5 4 4 3 3 2 2 2 2 2 2 2 2 2 1 1 1 1 2 2 2 2 2 2 2 2 2 2 2 1 1 2 2 2 3 4 3 3 3 2
5 5 5 5 5 5 4 4 4 3 3 3 2 2 2 2 2 2 2 2 2 1 1 1 1 1 1 1 2 2 2 2 2 1 1 1 1 1 2 2 2 3 4 3 3 3 3
4 4 4 4 4 4 4 4 3 3 3 2 2 1 1 1 2 2 2 2 2 2 1 1 1 1 1 1 1 2 2 2 2 1 1 1 1 2 2 2 3 3 3 3 3 3 2
4 4 4 3 3 3 3 3 3 3 3 2 2 1 1 1 1 1 1 2 2 2 2 2 2 1 1 1 2 2 2 2 1 1 0 0 1 2 2 2 2 2 2 2 2 2 1
3 3 3 3 2 3 3 3 3 3 2 2 2 1 1 1 1 1 1 1 2 2 2 2 2 2 2 2 2 2 1 1 1 1 0 0 1 2 2 2 2 2 1 1 1 1 1
3 3 3 2 2 2 2 2 2 2 2 2 2 2 2 2 1 1 1 1 2 2 2 2 2 2 2 2 1 1 1 1 1 1 1 1 1 1 1 1 1 1 1 0 0 0 0
2 2 2 2 2 2 2 2 2 3 2 2 2 2 2 2 2 1 1 1 1 1 1 1 1 1 1 1 1 1 1 0 0 1 1 1 1 1 1 1 1 1 0 0 0 0 0